RH
88 80 81 83 83 83 84 85 83 87 93 92 95 96 96 94 93 91 90 87 84 87 91 84 88 89 92 91 71 60 71 88 90 85 75 71 80 95 95 88 92 81 84
84 82 80 81 86 84 87 87 83 81 80 78 94 98 92 88 87 90 95 94 81 82 85 86 90 93 93 70 77 79 78 82 87 88 78 80 93 95 96 92 82 89 90
78 80 81 81 85 85 87 87 84 83 63 80 98 96 94 87 84 85 89 84 82 82 84 91 93 90 67 64 75 78 80 80 83 89 86 89 92 95 96 90 95 96 99
75 73 79 84 86 87 88 82 74 75 60 95 92 91 93 86 87 85 88 83 82 85 90 95 95 73 57 73 76 74 74 79 79 78 76 80 82 94 94 87 94 98 96
75 72 80 85 87 88 83 74 67 62 78 93 87 86 95 87 90 90 94 87 88 90 93 93 71 60 46 70 68 64 74 71 71 67 68 67 68 86 82 77 76 91 95
91 80 86 86 87 86 80 74 63 63 84 91 89 90 81 80 89 95 94 92 96 96 91 70 62 56 50 52 61 61 64 70 73 71 61 50 72 86 80 74 82 90 94
91 83 89 90 87 81 85 68 63 63 83 91 91 93 86 77 45 53 65 74 81 78 71 66 63 62 57 51 55 60 61 64 73 71 66 51 75 89 85 77 78 82 87
86 83 88 91 82 84 76 61 61 69 87 88 93 92 82 76 63 45 47 56 63 65 62 62 61 60 57 54 50 59 63 63 68 71 73 58 63 83 79 70 73 72 79
77 84 92 84 84 82 70 63 73 78 78 81 85 93 79 72 73 51 47 55 55 50 52 54 56 56 54 51 48 50 62 61 59 65 69 63 55 72 65 57 58 63 63
78 81 90 88 86 79 70 60 77 83 76 67 83 91 81 74 74 65 53 45 51 50 49 49 49 48 46 44 44 46 59 61 60 65 64 63 52 58 66 64 58 56 52
79 84 89 88 83 77 72 56 69 84 79 75 70 89 78 74 72 66 63 56 43 40 42 44 44 44 43 52 48 42 55 55 55 58 58 59 56 48 63 70 66 60 57
78 78 77 78 81 80 74 68 48 73 82 83 78 79 76 78 78 74 78 68 56 44 38 40 42 43 56 58 55 50 51 53 53 53 52 52 52 46 60 72 76 71 63
71 74 81 73 74 81 78 74 54 42 69 78 73 64 76 81 84 79 77 63 57 53 48 49 51 63 64 63 60 54 50 49 47 51 52 50 50 48 46 78 79 80 76
74 74 79 70 68 69 71 74 73 62 48 54 57 54 65 74 67 60 60 64 64 69 61 65 63 67 67 64 63 61 58 54 52 48 47 48 48 50 50 54 92 89 84
73 71 72 72 66 66 63 70 79 73 64 54 53 54 55 55 53 54 56 64 63 64 65 60 61 59 62 63 65 63 62 61 59 56 51 51 54 56 57 57 68 96 97
77 72 69 73 70 73 62 65 68 71 64 60 57 55 58 60 56 54 53 56 58 58 56 54 54 58 65 66 67 67 67 66 65 65 63 63 65 67 65 63 64 73 94
70 68 74 79 79 79 71 67 64 63 61 61 64 65 64 64 62 60 60 59 57 54 52 53 56 61 66 66 67 67 67 67 67 66 66 66 66 67 68 70 69 69 73
72 72 72 79 81 82 77 69 63 64 63 60 62 66 69 68 66 66 64 65 68 69 67 64 64 67 70 72 71 70 68 68 66 65 61 66 67 68 70 72 72 74 75
75 78 74 71 72 75 76 73 66 71 65 60 64 66 65 71 72 70 69 67 69 73 74 72 74 73 72 69 68 68 65 68 69 65 66 69 70 68 68 72 78 78 79
67 71 74 74 71 70 72 76 73 73 66 66 60 61 67 70 74 74 75 75 74 71 69 71 72 74 71 71 71 72 73 74 74 72 72 72 71 73 71 65 73 68 68
64 68 72 77 77 75 76 77 76 72 69 63 72 73 68 70 68 72 75 78 74 74 73 73 74 79 76 75 75 73 75 71 62 60 62 69 74 74 72 68 62 61 72
60 66 68 70 73 76 74 73 74 70 71 68 67 70 73 72 71 71 74 78 76 72 73 74 79 82 73 73 76 78 91 71 61 60 61 61 75 70 67 63 64 66 68
36 63 69 71 72 71 72 74 75 76 78 78 76 76 80 78 74 71 76 79 79 79 81 84 87 91 93 76 72 77 91 92 87 66 66 71 69 66 63 63 66 67 69
26 33 58 69 76 71 76 76 72 75 86 85 76 85 85 86 84 85 80 83 86 89 91 90 88 94 96 94 88 83 86 94 96 87 72 70 68 66 64 67 67 68 67
28 28 32 43 72 78 74 78 83 82 84 84 81 83 86 87 87 87 85 86 85 78 73 74 79 87 90 93 91 90 87 82 77 94 92 77 76 72 71 72 71 71 74
33 35 33 32 41 63 74 83 87 86 82 75 76 78 77 68 51 46 47 48 53 61 66 69 74 79 83 88 91 91 86 87 91 85 94 87 83 85 84 79 77 76 76
Wind_Speed
30 30 24 22 20 17 17 17 15 14 14 15 18 19 19 18 18 18 22 23 23 21 20 19 19 19 18 17 20 22 22 23 24 22 17 17 17 18 18 17 18 18 16
37 31 26 23 21 18 18 18 14 12 15 18 18 20 19 18 18 18 19 21 20 19 18 17 18 18 17 19 19 18 19 18 19 23 20 20 19 21 22 21 19 17 16
37 32 27 24 21 19 19 15 14 14 17 21 20 19 18 18 18 18 19 18 18 17 16 16 17 17 19 20 19 17 16 14 15 19 18 18 17 17 17 18 17 16 17
35 32 28 24 22 20 16 15 15 17 21 20 21 20 18 19 19 19 19 18 18 17 16 15 17 16 18 19 18 17 15 18 20 18 13 11 13 12 13 11 11 12 14
32 30 27 24 21 19 17 16 16 18 23 20 19 18 18 19 19 19 19 20 18 17 15 15 17 17 18 17 17 19 19 17 14 9 10 10 13 13 13 13 12 11 11
27 27 25 24 21 19 17 15 16 19 22 19 19 17 16 18 18 18 19 19 17 16 15 16 17 16 16 16 15 16 17 16 10 10 11 12 14 12 13 13 13 12 11
27 26 23 23 21 19 17 15 16 20 22 21 19 17 15 15 17 18 18 17 15 15 15 15 15 13 13 13 13 14 13 13 10 8 10 10 12 12 12 12 13 12 12
29 27 24 21 20 21 16 15 17 18 21 19 19 17 16 13 14 16 17 15 14 13 13 13 12 11 10 10 10 10 9 10 8 5 7 10 9 10 10 11 12 12 11
28 27 25 21 21 18 16 15 19 18 18 16 17 16 15 12 12 14 14 14 13 12 10 10 9 8 7 7 8 9 9 9 8 4 4 7 7 6 8 9 10 10 10
28 27 23 23 21 19 16 15 17 16 16 17 16 17 15 9 10 11 12 11 11 10 9 8 6 5 5 5 5 6 8 6 5 1 2 5 7 4 5 7 8 8 9
28 25 23 21 19 18 16 15 18 16 17 16 15 16 13 8 8 10 10 8 8 7 7 6 5 4 4 5 6 5 5 3 3 0 3 5 7 5 4 4 5 6 7
30 26 21 19 17 16 14 14 16 17 17 16 15 14 11 8 8 8 6 5 5 5 5 4 3 3 4 3 2 3 1 0 0 4 7 7 7 6 5 5 4 5 4
23 25 23 21 16 15 13 12 14 16 17 16 14 12 13 11 12 7 5 5 6 5 5 4 3 4 3 0 2 2 2 4 6 5 6 8 8 9 6 7 6 5 5
19 21 24 19 19 15 13 12 13 14 15 16 14 11 12 14 10 7 8 4 4 6 4 5 3 3 5 3 4 3 4 6 6 6 8 9 10 9 9 7 9 8 7
28 23 21 22 21 21 16 13 14 15 15 15 14 12 12 13 11 9 9 9 5 5 6 6 5 5 5 7 7 7 8 7 7 9 11 11 11 11 10 9 9 10 10
23 24 23 24 23 23 19 17 16 10 16 17 17 16 14 12 12 10 10 9 8 8 7 8 8 8 7 8 8 9 10 10 10 11 12 14 14 13 11 11 11 11 11
27 22 22 23 23 22 21 18 17 14 16 16 19 15 17 13 13 12 12 11 11 11 10 10 8 9 8 10 12 12 11 12 13 14 14 15 16 16 14 13 11 11 12
24 25 26 22 20 21 23 20 18 19 15 18 16 16 15 15 16 13 12 13 11 10 9 9 10 10 10 10 12 12 14 14 14 16 18 16 17 15 17 16 13 11 12
23 23 23 25 26 24 22 21 21 18 14 16 16 14 15 14 14 14 14 12 11 11 10 11 10 10 11 11 11 15 16 18 19 19 19 18 16 17 15 14 11 11 12
19 21 23 23 23 21 21 22 22 19 14 13 16 16 14 15 15 14 12 11 11 12 11 11 11 12 13 14 15 18 19 21 22 22 22 22 20 16 17 12 10 10 10
21 18 25 26 23 23 22 21 21 21 20 21 13 13 16 15 13 14 14 12 12 13 13 11 10 11 14 13 15 18 18 17 20 20 19 20 21 15 11 7 6 8 5
25 25 24 25 27 26 26 26 22 22 22 19 19 17 12 14 13 12 16 15 15 15 15 15 15 16 16 16 14 16 3 11 14 17 17 16 15 10 8 8 6 5 3
26 26 28 29 26 27 25 24 21 21 19 18 19 19 17 18 18 17 16 14 16 18 18 17 16 17 18 20 19 12 3 3 3 2 7 5 8 10 9 8 6 5 5
27 26 26 25 28 24 24 24 26 26 16 17 16 17 18 16 17 14 16 17 17 18 18 18 17 17 14 16 15 13 15 12 2 3 5 7 8 8 10 8 9 10 9
23 19 22 20 21 26 25 25 25 23 20 16 16 17 17 14 13 13 13 14 14 13 13 13 12 12 12 13 14 15 13 14 14 8 3 7 10 12 10 9 11 12 9
12 14 14 15 17 18 19 21 21 20 17 17 18 19 17 13 11 9 9 9 9 9 10 11 11 11 11 12 12 13 12 8 4 9 4 8 11 11 5 13 11 10 7
Wind_Direction
157 155 151 146 141 133 129 124 117 113 110 108 112 108 98 93 91 95 97 99 99 95 93 89 88 87 87 86 93 96 93 88 76 68 86 79 72 65 58 67 66 68 64
154 154 150 145 139 140 133 129 127 126 115 116 115 105 97 95 97 96 100 99 99 98 94 95 94 93 90 96 98 95 89 84 79 71 78 78 71 69 64 69 70 66 60
152 152 148 148 144 142 138 134 133 125 120 120 115 106 100 98 100 103 103 107 106 100 100 99 97 93 95 102 100 91 80 79 82 88 76 66 67 66 65 62 60 61 60
150 152 151 149 145 143 138 133 127 126 125 118 123 110 104 102 105 109 110 112 108 106 104 99 97 99 100 104 98 81 76 92 94 94 85 83 70 58 57 63 61 60 56
150 151 150 150 147 143 137 130 125 127 130 124 123 114 110 106 108 114 116 116 113 109 106 100 101 102 103 106 96 80 87 90 89 74 66 61 67 60 57 55 57 60 61
146 151 152 150 146 141 137 131 131 133 134 128 128 125 112 107 112 114 120 125 119 116 108 101 102 103 103 107 104 94 95 89 93 66 53 74 65 62 58 56 58 60 62
152 152 153 150 144 141 138 134 137 139 139 133 139 132 116 111 113 117 120 122 121 116 111 105 103 108 107 106 107 103 96 94 83 57 55 62 66 64 60 59 60 60 59
152 152 151 150 145 142 137 134 137 141 143 138 139 139 125 116 119 122 121 122 123 121 117 113 110 108 104 99 100 110 92 101 91 65 58 49 55 63 59 56 59 60 62
151 151 151 153 148 142 135 136 143 141 145 143 139 149 130 122 121 124 125 127 129 129 126 122 119 117 111 104 99 110 105 94 84 53 55 31 34 51 50 49 52 55 59
154 152 155 153 152 147 138 139 149 148 157 150 151 150 139 142 136 136 134 137 139 136 135 132 129 121 107 93 88 103 119 107 92 148 328 356 2 16 32 39 39 42 46
148 151 154 155 155 152 145 142 155 150 151 156 158 157 155 160 154 146 142 141 149 151 152 147 142 125 112 96 79 73 121 89 76 96 304 317 334 335 345 10 22 25 29
148 150 161 165 161 162 156 151 160 162 163 161 161 166 169 162 160 155 152 167 166 170 174 165 157 127 123 120 103 81 82 25 284 281 291 298 318 320 310 320 335 350 0
153 152 164 163 174 169 163 161 162 170 174 174 177 179 179 201 191 186 191 219 204 199 195 159 158 124 153 299 287 292 285 300 283 266 273 292 303 313 295 288 296 303 318
161 160 162 171 180 188 179 181 165 163 169 178 175 166 187 189 183 211 215 197 190 181 188 190 195 225 214 258 287 279 279 277 297 279 272 285 293 300 297 271 271 282 287
165 175 173 179 186 187 193 191 197 202 185 184 188 184 189 191 207 213 214 212 211 210 224 230 234 253 249 262 265 265 277 284 284 279 272 275 287 290 295 289 266 259 273
171 181 177 190 190 193 197 201 204 208 197 190 189 194 199 205 203 202 205 207 213 221 221 235 239 244 252 262 264 267 270 275 276 275 274 275 278 285 290 293 287 270 255
178 185 190 189 190 195 193 194 211 196 201 207 199 203 202 201 204 204 207 214 220 226 232 231 236 251 260 266 274 277 277 277 273 271 269 271 276 275 280 290 291 291 285
186 183 186 198 205 198 200 199 205 215 221 210 215 210 210 215 214 210 214 219 219 224 226 229 239 248 260 268 275 277 279 283 286 274 278 271 271 275 284 281 279 282 289
189 190 196 200 206 205 203 207 206 212 211 208 198 206 216 220 216 218 220 224 224 228 232 236 246 259 265 269 278 283 289 289 290 292 283 277 277 281 280 279 268 279 293
190 196 199 203 205 200 208 213 212 211 218 210 215 216 212 221 216 218 218 222 230 237 242 241 255 262 271 278 282 282 282 283 282 282 279 278 275 272 281 273 266 292 299
193 199 194 191 196 196 199 197 198 203 212 217 214 217 223 219 225 226 222 220 233 243 250 249 257 264 266 276 291 288 287 287 288 282 279 276 268 257 259 252 278 300 293
186 193 197 200 199 199 200 202 205 205 210 214 219 219 215 207 209 213 220 221 236 251 254 257 258 267 270 274 271 287 279 284 267 271 278 274 249 221 215 246 262 252 250
190 193 195 198 201 203 204 201 204 208 218 217 224 225 223 228 231 233 237 240 247 250 256 260 262 265 272 273 269 265 302 249 332 259 340 272 211 220 220 224 213 221 226
196 199 200 197 203 207 204 204 203 199 190 205 199 198 205 209 218 219 225 235 248 257 261 263 265 267 265 267 278 256 258 271 262 300 290 276 243 239 230 210 201 204 221
194 198 199 196 193 198 201 207 208 208 206 196 194 192 199 208 219 236 243 245 247 249 253 256 257 258 259 260 261 269 269 275 271 241 269 276 289 267 236 210 190 175 179
177 187 188 195 201 205 199 201 203 205 196 185 188 187 191 204 218 225 232 236 242 249 254 258 260 264 265 263 262 263 264 263 272 248 234 252 252 271 226 176 180 178 192